Location: Seattle
(47.6064°N, 122.3308°W)
Time: 15:56:00
(UTC-08:00)

S-56A Canister/Altair - Visible Passes

Search period start: 05 December 2020 00:00
Search period end: 15 December 2020 00:00
Orbit: 632 x 2500 km, 38.9° (Epoch: 05 December)

Date Brightness Start Highest point End Pass type
(mag) Time Alt. Az. Time Alt. Az. Time Alt. Az.
05 Dec 10.0 17:49:55 10° SW 18:02:53 47° SSE 18:10:08 19° ESE visible
05 Dec 9.4 19:55:49 10° WSW 20:07:33 52° S 20:07:33 52° S visible
05 Dec 10.9 22:02:34 10° W 22:04:59 17° W 22:04:59 17° W visible
06 Dec 10.2 17:16:26 10° SW 17:29:40 46° SSE 17:39:13 12° E visible
06 Dec 9.4 19:22:07 10° WSW 19:34:35 54° S 19:36:38 48° SSE visible
06 Dec 10.5 21:28:52 10° W 21:34:03 26° WSW 21:34:03 26° WSW visible
07 Dec 10.4 16:42:59 10° SW 16:56:24 44° SSE 17:06:51 10° E visible
07 Dec 9.6 18:48:24 10° WSW 19:01:28 55° S 19:05:43 36° SE visible
07 Dec 10.1 20:55:07 10° W 21:03:08 36° SW 21:03:08 36° SW visible
08 Dec 9.9 18:14:43 10° WSW 18:28:17 56° S 18:34:48 25° ESE visible
08 Dec 9.7 20:21:22 10° W 20:32:14 45° SSW 20:32:14 45° SSW visible
08 Dec 11.2 22:29:04 10° W 22:29:40 11° W 22:29:40 11° W visible
09 Dec 10.0 17:41:04 10° WSW 17:55:01 56° S 18:03:56 16° ESE visible
09 Dec 9.5 19:47:36 10° W 19:59:53 49° SSW 20:01:22 47° S visible
09 Dec 10.9 21:55:04 10° W 21:58:47 18° WSW 21:58:47 18° WSW visible
10 Dec 10.2 17:07:28 10° WSW 17:21:42 56° S 17:32:39 10° E visible
10 Dec 9.7 19:13:50 10° W 19:26:49 52° SSW 19:30:31 39° SE visible
10 Dec 10.5 21:21:09 10° W 21:27:57 26° WSW 21:27:57 26° WSW visible
11 Dec 10.4 16:33:57 10° WSW 16:48:20 55° S 16:59:50 10° E visible
11 Dec 9.9 18:40:05 10° W 18:53:39 55° S 18:59:44 28° SE visible
11 Dec 10.2 20:47:15 10° W 20:57:09 33° SW 20:57:09 33° SW visible
12 Dec 10.0 18:06:22 10° W 18:20:25 57° S 18:28:58 18° ESE visible
12 Dec 10.0 20:13:23 10° W 20:24:47 37° SSW 20:26:25 36° SSW visible
12 Dec 11.3 22:23:35 10° WSW 22:23:51 10° WSW 22:23:51 10° WSW visible
13 Dec 10.2 17:32:41 10° WSW 17:47:06 58° S 17:58:10 10° ESE visible
13 Dec 10.0 19:39:32 10° W 19:51:49 41° SSW 19:55:45 32° SSE visible
13 Dec 11.0 21:48:35 10° W 21:53:11 15° WSW 21:53:11 15° WSW visible
14 Dec 10.3 16:59:04 10° WSW 17:13:43 59° S 17:25:23 10° ESE visible
14 Dec 10.2 19:05:44 10° W 19:18:45 45° SSW 19:25:09 24° SSE visible
14 Dec 10.8 21:14:08 10° W 21:21:51 20° SW 21:22:36 19° SW visible
